Theta_e
299 299 299 300 300 299 300 300 300 299 300 298 298 299 300 300 300 298 292 292 289 284 283 282 283 279 278 275 269 270 271 270 270 262 259 269 262 270 267 270 269 267 259 256 253 254 257 275 273 268 271 274 274 275
299 300 299 299 299 300 300 299 298 299 299 299 299 299 299 300 299 299 291 292 293 286 284 284 286 287 285 282 277 271 274 267 274 268 264 264 260 261 263 259 271 264 269 262 264 264 275 277 275 279 277 274 276 277
298 298 299 299 299 299 299 299 299 298 299 299 298 298 298 299 299 297 293 292 290 285 284 284 282 286 287 286 287 278 273 280 277 279 273 273 268 270 262 262 267 271 274 271 271 274 275 276 278 277 278 278 278 278
298 298 298 298 298 298 299 299 298 298 298 298 297 297 297 297 298 297 291 292 290 285 278 278 282 282 287 287 286 286 284 281 281 280 277 274 270 277 272 273 271 273 272 269 271 275 276 277 278 279 279 278 276 276
297 297 297 297 297 298 298 298 298 298 298 298 297 297 296 296 297 296 293 293 292 285 277 274 274 281 283 284 284 284 283 282 281 278 276 273 276 276 275 275 272 275 273 270 269 276 275 276 279 277 276 275 273 272
296 296 296 297 297 297 297 297 297 297 297 297 297 296 296 296 296 290 284 291 293 291 282 275 279 275 280 281 281 281 282 281 281 279 277 278 280 277 272 270 276 277 278 278 275 278 278 278 275 272 271 270 271 270
295 295 295 296 296 296 296 297 297 297 296 297 296 296 296 295 291 286 283 284 294 292 281 276 274 272 279 278 275 278 280 280 280 279 277 277 277 279 274 270 276 277 277 278 274 273 275 274 271 269 270 268 267 267
294 294 294 295 295 295 295 296 296 296 296 296 296 296 295 295 293 288 291 294 293 286 283 274 270 266 274 270 271 278 277 279 279 277 275 276 277 277 271 276 278 278 273 270 267 268 268 267 267 266 266 265 263 263
293 293 294 294 294 294 295 295 295 296 296 295 295 295 291 288 284 286 294 295 292 285 276 274 264 262 276 274 276 272 278 272 278 274 275 275 271 269 273 276 276 266 266 263 264 264 264 262 263 263 261 261 260 260
291 292 293 293 293 293 293 294 295 295 295 295 291 284 280 284 292 292 287 283 282 282 280 274 261 262 275 273 269 270 275 272 269 270 276 273 271 276 269 264 264 262 261 261 259 260 257 257 258 259 258 259 260 259
290 291 291 292 293 292 293 294 294 294 294 287 282 280 283 291 282 281 277 276 277 273 277 271 270 267 275 270 271 274 270 268 263 264 266 262 259 270 262 261 262 262 260 258 258 258 258 257 257 257 257 257 257 256
289 290 290 291 291 292 292 293 293 290 286 286 285 286 286 281 277 274 272 273 272 268 264 268 272 276 274 275 270 272 268 268 263 261 266 263 266 259 258 258 258 257 255 254 255 255 256 257 257 256 255 255 255 255
288 289 289 290 290 291 292 292 292 292 290 286 281 278 278 276 271 269 265 263 261 258 261 265 268 272 273 275 272 271 267 264 258 262 262 261 257 255 253 254 254 254 253 253 253 254 254 254 254 253 253 254 253 253
288 289 289 289 289 290 291 291 292 290 285 279 275 270 270 268 267 264 261 260 265 264 261 264 266 270 268 270 271 265 265 265 262 261 257 255 252 250 251 254 249 250 248 251 250 251 251 252 252 252 252 252 252 251
288 288 288 288 289 289 290 290 290 288 282 276 274 268 269 258 254 250 250 259 262 265 268 265 263 273 264 268 271 266 263 262 262 259 257 250 252 252 252 249 246 246 248 248 248 248 249 250 250 250 250 250 250 253
288 286 282 287 288 289 289 289 286 285 280 276 271 266 255 258 252 252 249 253 259 267 263 266 262 267 265 268 267 265 262 258 260 250 249 252 251 249 245 245 246 246 245 245 246 246 249 248 248 249 250 250 252 254
287 281 287 287 287 288 288 279 279 274 271 267 261 257 256 260 259 253 253 257 263 261 258 264 265 263 267 263 260 259 258 254 248 250 250 248 246 245 244 242 243 243 244 244 242 244 245 246 247 245 247 251 254 256
270 277 286 287 285 283 276 273 270 267 261 258 259 250 250 250 250 254 254 261 264 264 264 264 265 261 259 257 255 254 248 243 242 243 245 244 242 240 240 242 244 243 244 244 244 244 241 245 246 251 254 256 256 256
282 282 286 286 284 276 270 265 267 260 252 252 253 255 253 251 256 256 257 260 260 260 262 262 263 258 256 248 246 241 239 242 244 247 246 244 245 242 242 242 243 243 243 243 244 247 251 253 254 255 256 256 255 256
282 282 285 284 280 271 265 262 265 260 251 254 254 251 254 255 254 252 255 258 260 259 260 258 255 247 248 245 245 244 245 247 243 241 243 247 247 242 244 243 245 244 245 247 251 254 254 254 254 255 255 256 255 255
276 276 278 273 268 266 263 262 258 259 257 255 256 256 254 254 251 252 252 254 258 257 251 242 240 239 238 237 239 240 246 247 243 243 244 244 246 245 245 245 245 247 251 252 251 252 253 252 253 254 254 255 256 256
270 275 270 271 266 262 260 260 257 257 255 253 255 254 253 253 248 246 249 251 248 244 242 242 240 238 239 241 241 238 240 239 238 243 246 246 247 248 247 248 250 250 252 251 251 251 252 253 253 253 253 254 255 255
268 268 263 262 262 260 255 260 256 254 254 253 252 253 250 249 247 252 249 242 242 242 237 237 237 235 239 237 237 238 238 240 242 244 246 249 251 251 251 251 251 251 251 252 252 252 252 253 252 252 252 252 252 252
262 254 253 253 256 254 253 253 255 253 252 251 249 246 244 241 247 246 245 239 241 239 239 239 238 241 241 241 241 243 244 243 244 245 247 249 251 251 252 252 252 252 251 251 252 251 251 251 252 251 250 249 248 248
256 247 248 245 248 250 248 245 245 248 245 241 243 243 244 240 244 243 244 242 238 238 239 236 237 241 241 238 241 242 243 247 249 248 250 251 251 252 252 252 252 252 251 250 250 249 249 249 249 249 249 246 246 246
243 241 243 237 243 245 242 243 241 242 240 242 241 239 237 240 243 245 244 241 238 240 241 244 245 242 243 244 246 249 249 251 251 250 252 253 252 251 249 250 249 250 250 248 247 246 247 248 247 247 248 248 248 244
242 240 241 240 241 240 241 240 239 241 241 243 239 241 242 244 243 246 242 242 242 242 244 248 249 248 247 245 249 250 251 253 252 252 250 250 251 251 251 250 250 251 250 249 248 247 246 247 247 248 247 247 242 241
239 237 241 240 239 236 238 237 239 241 240 239 240 243 245 246 246 245 247 246 243 244 245 246 247 247 248 251 251 253 253 250 249 250 250 250 250 251 251 252 252 256 252 250 250 249 247 246 246 246 246 247 247 242
239 236 238 240 240 243 240 241 239 238 239 237 242 243 243 243 243 241 244 247 244 247 247 248 249 249 251 252 252 252 250 250 250 249 248 249 249 252 250 250 250 249 248 247 251 254 251 248 248 248 249 247 246 240
239 236 242 240 242 242 239 236 236 233 232 235 235 240 241 241 241 240 242 243 246 246 246 246 247 250 250 250 249 249 246 247 250 250 247 247 248 246 243 243 245 245 242 240 245 246 249 246 245 242 243 243 243 242
233 233 237 237 240 236 233 229 228 229 230 231 229 235 238 237 240 239 242 244 245 246 247 246 244 241 243 241 242 243 246 244 244 245 245 245 244 244 245 246 246 244 241 242 243 242 243 243 241 242 243 244 245 245
233 233 237 241 239 234 230 230 229 233 231 233 236 230 237 239 244 245 246 242 241 243 245 242 241 247 244 246 242 242 247 243 241 245 245 247 248 249 249 249 246 243 243 245 244 244 243 243 244 245 246 246 246 245
232 229 229 234 237 238 234 234 235 236 234 234 235 231 231 236 243 245 243 239 242 242 242 244 244 241 242 243 245 246 248 247 247 253 255 254 253 253 250 248 247 246 245 246 246 246 245 245 246 246 246 246 247 247
Wind_Speed
23 23 23 22 22 22 22 18 17 18 19 19 19 21 18 17 17 14 4 9 9 4 9 8 8 9 2 3 5 5 4 3 3 2 5 4 4 4 1 3 4 6 5 4 3 4 9 4 4 5 7 4 4 4
25 26 26 25 24 23 24 22 20 22 22 21 19 20 20 20 19 16 6 7 9 6 4 3 10 12 14 12 6 3 6 6 4 3 2 2 3 2 4 4 3 3 7 6 9 8 4 4 8 12 4 7 8 8
25 24 24 24 24 25 23 22 24 22 20 19 18 19 19 21 22 19 8 5 5 4 4 5 13 15 7 12 13 9 2 6 5 4 4 4 8 4 3 8 4 6 4 11 15 14 17 18 18 6 9 14 14 9
25 25 25 23 23 23 24 24 23 22 22 21 21 20 20 20 20 18 7 5 7 2 5 8 3 7 10 11 11 12 12 2 2 3 6 5 5 6 8 9 9 7 5 6 13 18 14 16 16 16 16 11 4 4
24 24 25 25 24 23 23 23 24 23 22 22 20 21 18 19 20 12 5 7 9 6 2 2 2 6 6 12 15 13 12 10 8 6 6 8 6 7 5 6 13 10 17 10 14 19 15 17 17 2 1 2 3 4
23 23 24 24 24 24 25 25 24 24 23 23 22 21 19 17 16 2 3 8 11 8 5 3 2 4 7 8 11 12 11 8 6 4 6 8 6 6 6 8 13 11 11 15 19 18 17 14 4 5 2 4 5 6
23 23 24 24 24 24 25 25 25 24 23 24 24 22 21 18 7 5 4 2 13 9 4 4 3 3 0 4 1 2 5 4 5 6 9 11 10 8 7 15 16 8 13 14 2 3 11 2 1 6 6 7 7 8
22 23 24 24 23 24 24 25 25 24 23 23 22 22 21 20 14 9 10 9 9 3 4 3 4 3 4 2 3 4 4 4 5 5 2 9 5 7 11 13 12 11 2 4 5 5 4 5 3 5 6 8 12 12
20 22 23 23 23 22 22 23 23 23 22 21 20 19 7 5 4 3 11 20 8 5 4 4 6 6 5 3 2 2 3 4 4 6 6 6 6 9 7 12 10 3 2 1 4 3 2 3 6 5 7 6 9 13
20 19 20 20 21 21 22 22 21 21 21 20 11 5 3 5 7 7 4 5 9 6 5 3 2 3 5 5 2 3 4 4 5 7 2 6 14 13 1 4 7 6 5 3 2 1 4 2 7 10 8 8 10 12
18 20 20 17 18 20 21 23 22 19 20 4 5 4 2 8 3 3 5 5 3 3 4 3 5 4 3 4 5 4 3 3 4 7 7 3 5 4 6 6 7 7 6 5 2 2 4 6 9 10 10 9 11 12
21 18 18 19 19 17 16 16 18 12 3 7 5 5 3 4 4 6 5 4 4 7 2 6 5 5 3 3 4 4 5 3 6 2 3 3 5 4 4 4 5 5 4 3 2 5 7 8 9 10 11 12 12 12
20 21 20 18 18 20 20 20 18 17 9 2 5 6 5 5 9 8 10 3 2 3 4 3 4 4 3 3 3 5 6 6 2 2 5 7 3 4 2 1 2 3 2 3 5 4 6 8 8 8 12 11 12 12
19 18 19 20 19 19 19 21 19 15 5 6 8 8 10 6 6 6 7 6 5 2 5 3 3 4 3 4 3 3 2 4 3 3 7 3 4 3 1 0 2 4 4 5 6 7 8 9 9 9 10 10 10 11
14 17 18 16 19 18 18 18 18 7 4 5 4 8 5 2 3 0 1 4 1 4 4 3 3 3 1 2 4 2 2 5 7 7 4 2 3 2 0 0 2 5 5 5 5 6 8 8 8 10 9 8 9 11
16 13 7 13 16 18 19 17 7 3 3 4 2 4 2 5 3 2 1 1 1 3 2 2 4 4 4 3 5 6 5 7 6 3 2 3 2 1 2 3 4 4 5 6 6 5 8 8 8 9 9 8 9 7
13 3 12 16 14 15 17 3 3 1 2 3 2 3 1 3 4 3 4 4 1 1 4 3 7 9 2 3 4 5 7 4 3 2 1 1 2 3 3 3 5 4 6 6 4 6 6 6 6 5 6 6 5 7
1 4 7 14 13 4 3 6 4 4 5 3 1 2 2 2 3 2 1 1 3 3 3 4 4 3 6 6 5 3 2 1 1 2 2 2 2 3 3 4 5 4 5 6 6 6 4 5 4 4 5 6 6 5
10 8 10 3 8 5 3 4 3 5 1 2 2 2 2 3 3 3 3 3 1 1 3 2 3 4 5 2 3 3 2 3 3 2 1 2 2 3 4 3 4 4 4 4 4 3 4 4 5 5 5 4 4 4
9 18 15 16 9 4 5 4 3 5 3 2 2 3 3 3 2 2 2 2 0 1 2 3 5 3 4 3 3 3 2 3 3 3 2 2 1 1 2 1 2 4 4 4 4 6 5 5 4 5 5 5 4 4
7 7 12 7 5 7 5 3 4 3 3 3 2 2 3 2 3 2 1 3 1 1 1 2 3 3 1 2 1 1 2 3 3 4 4 2 2 0 1 2 2 2 2 3 4 5 6 5 5 6 5 5 4 5
3 10 3 6 5 4 5 5 4 2 3 2 2 2 2 2 1 2 3 3 1 2 3 3 3 2 2 0 3 3 2 4 2 1 0 1 1 2 1 1 2 2 2 3 3 4 5 5 5 5 5 5 6 4
6 5 5 6 5 6 2 2 3 4 3 2 1 2 2 2 2 3 1 1 3 1 2 2 2 1 3 2 1 1 3 4 2 2 1 1 2 2 1 1 0 2 2 2 3 3 4 6 5 5 5 5 5 5
11 9 8 6 6 4 2 4 2 2 2 3 3 3 2 1 4 4 2 3 3 2 1 2 3 3 3 3 1 1 2 3 2 1 2 1 2 2 2 1 2 1 0 2 2 3 3 4 6 4 4 4 3 3
8 11 7 7 4 4 5 4 5 4 3 1 3 1 1 2 3 1 3 4 2 2 1 1 1 2 4 2 2 2 3 3 3 2 2 2 1 1 1 2 2 2 1 1 1 2 3 3 3 3 3 2 4 5
11 5 5 1 4 4 1 3 2 2 2 3 1 2 2 4 4 5 4 4 3 4 4 6 5 2 2 3 3 2 3 3 2 2 2 4 3 2 2 2 2 2 3 2 2 2 3 3 3 5 4 5 6 5
7 5 4 0 2 2 4 2 1 4 3 2 2 2 4 1 5 5 3 3 3 4 5 5 5 4 4 3 2 1 2 4 4 2 1 2 3 4 4 4 4 3 4 4 3 4 4 5 5 5 6 4 4 4
3 3 3 5 3 1 4 2 3 1 1 1 3 2 6 7 5 4 4 2 4 1 2 2 3 3 2 2 2 3 2 0 2 3 3 4 4 4 5 5 5 8 5 4 5 4 5 5 5 6 6 7 7 3
3 3 0 4 3 3 2 3 3 3 1 3 3 2 4 4 3 2 2 1 1 3 3 3 0 2 2 2 1 1 2 3 2 1 2 3 3 3 4 4 3 3 2 3 7 8 7 7 7 7 8 5 5 3
3 2 1 1 2 1 3 3 2 2 1 2 1 4 3 4 4 2 0 1 2 3 3 2 2 3 3 3 2 3 3 4 5 5 4 4 5 3 2 3 4 4 2 2 5 5 6 4 5 3 3 4 3 4
1 2 2 1 1 3 3 2 2 1 2 1 1 2 4 5 6 3 2 2 2 2 3 2 2 2 3 3 3 1 4 3 5 7 5 4 4 5 5 5 5 4 3 4 4 4 4 3 3 5 7 8 8 6
4 2 1 3 3 3 3 3 1 1 3 3 2 2 4 3 4 3 1 3 3 1 4 3 3 5 5 4 2 3 4 2 3 4 6 5 6 7 6 5 4 3 4 5 5 5 6 8 7 8 8 10 9 9
1 0 0 2 4 5 4 3 4 4 3 2 3 1 1 1 4 4 3 2 4 3 4 4 4 3 4 5 5 4 5 4 6 9 10 11 12 11 6 5 5 5 6 6 7 6 8 9 10 11 11 11 12 11
Wind_Direction
252 250 250 252 249 246 252 247 253 258 245 245 247 249 244 245 243 236 199 192 190 219 239 197 191 208 149 152 161 237 24 341 47 87 137 243 196 225 310 263 207 181 169 222 76 33 294 211 351 148 222 269 225 263
258 255 252 250 250 247 248 244 246 248 250 247 249 252 254 243 253 241 242 189 202 220 235 209 230 220 203 190 162 221 204 170 190 109 245 47 291 352 171 241 169 274 197 188 185 215 245 228 237 279 211 229 261 248
259 260 255 258 251 252 254 242 243 252 245 242 243 248 246 252 253 245 235 175 202 243 235 214 230 226 230 215 196 225 257 184 211 179 173 213 235 150 223 240 244 246 229 253 268 260 255 264 272 257 278 270 278 258
259 258 256 256 255 253 253 252 250 251 246 244 247 248 252 247 255 256 232 184 213 193 236 250 19 191 207 197 198 212 231 133 164 163 220 216 233 208 249 253 233 228 179 213 250 261 269 265 265 265 267 279 276 288
262 258 256 255 256 255 254 252 248 248 245 240 248 253 255 252 260 255 232 189 203 222 233 247 329 245 180 184 204 212 222 227 226 227 227 241 232 232 223 241 248 220 237 229 249 260 261 271 277 15 288 310 28 336
260 260 257 255 254 256 256 251 247 247 242 239 239 244 249 253 249 184 238 205 199 201 251 219 278 191 200 184 187 195 205 207 207 216 230 232 225 205 240 243 254 248 227 234 248 259 270 272 106 56 20 348 327 312
261 260 257 256 255 255 253 250 247 243 242 240 235 239 244 245 228 208 203 248 196 176 222 238 245 284 305 143 169 171 178 198 209 228 235 245 243 220 251 257 266 232 230 245 327 342 272 111 78 353 342 326 310 289
266 262 259 256 255 254 252 249 246 242 240 235 234 235 237 242 247 243 228 239 181 204 204 217 252 1 184 173 207 174 168 185 211 223 266 229 242 229 247 252 243 250 132 98 54 31 356 341 350 342 341 339 323 315
273 268 263 259 253 253 254 250 242 237 235 228 229 234 243 222 204 207 204 195 194 200 206 178 160 234 166 189 141 24 168 194 192 217 217 183 215 225 217 240 250 98 133 40 340 324 9 340 321 335 336 318 299 306
267 273 268 258 255 259 258 247 233 235 229 222 215 184 208 188 186 171 174 221 201 193 219 203 68 201 164 162 194 116 196 212 208 225 176 222 246 250 143 95 96 107 90 46 34 335 344 324 330 322 316 305 295 296
272 264 260 260 254 255 258 242 228 225 222 187 180 187 128 155 87 176 211 215 196 211 203 143 177 140 224 146 184 217 200 212 211 243 175 214 263 202 116 97 93 83 77 73 60 304 284 277 295 303 302 299 296 294
253 260 262 253 246 243 250 240 224 209 190 172 136 108 152 173 185 207 190 180 206 217 249 150 175 169 162 136 154 203 202 176 238 114 186 232 237 124 117 97 71 55 31 359 330 304 305 300 303 299 296 297 295 295
266 256 253 254 251 242 236 229 233 219 157 148 188 157 181 170 199 190 179 224 190 172 198 172 176 150 157 203 196 185 212 223 82 140 219 220 138 106 84 61 39 16 328 310 309 299 290 286 285 279 287 286 288 291
260 263 252 247 245 242 236 230 224 220 204 205 169 194 187 175 207 176 166 180 227 138 142 141 114 165 193 174 188 212 215 129 224 234 233 230 162 156 257 30 24 314 313 305 292 291 292 293 290 281 270 279 285 287
259 247 250 239 234 236 227 226 222 198 215 228 184 190 186 138 42 307 59 102 188 133 148 92 41 157 207 209 206 198 187 226 202 221 224 188 139 157 221 282 277 292 301 288 273 275 283 282 284 288 277 271 270 276
254 251 245 238 237 231 220 216 206 180 212 228 80 94 21 73 327 10 25 319 283 153 86 60 140 159 210 207 202 212 191 218 241 197 183 119 123 356 284 278 280 274 274 272 277 273 289 285 278 279 288 277 270 269
257 203 230 232 223 219 218 125 147 123 29 101 114 8 67 72 145 167 153 175 154 91 173 154 169 202 86 193 235 192 204 220 171 147 126 140 187 254 268 280 280 282 290 285 271 276 266 263 274 279 283 280 285 293
70 288 273 218 194 125 48 16 77 76 78 35 329 294 62 39 97 121 104 65 143 179 168 188 126 164 194 192 249 199 180 208 203 164 192 230 239 268 231 268 292 279 280 285 270 273 267 290 292 280 294 310 310 311
31 15 349 292 103 87 87 42 17 98 97 119 60 22 76 136 65 10 61 93 81 283 118 92 160 201 226 192 181 234 232 198 163 162 218 273 255 256 283 281 286 298 291 279 298 290 300 309 322 325 322 318 319 321
43 28 26 71 68 73 73 33 20 81 98 159 67 31 50 51 54 13 10 28 183 123 120 174 209 201 166 202 179 172 166 148 120 66 338 296 258 351 313 273 296 294 303 331 327 355 347 346 346 336 331 339 339 337
33 355 27 42 64 57 69 68 56 63 119 83 82 42 85 45 44 11 30 313 190 64 245 201 209 248 339 304 356 106 113 138 173 162 175 174 268 285 340 329 317 325 2 357 352 350 4 356 338 335 336 343 347 350
348 17 59 24 84 74 74 20 93 70 65 79 89 6 72 94 342 316 269 56 101 232 178 171 207 156 55 246 225 209 191 121 86 97 120 73 28 21 343 313 356 356 8 13 353 343 337 344 347 348 352 354 357 7
18 29 52 17 84 56 49 320 81 14 96 120 169 124 55 30 325 304 28 188 250 244 185 153 169 183 154 242 161 93 171 135 141 192 207 209 226 227 202 166 37 16 1 7 344 323 329 346 345 354 355 3 3 8
30 46 34 42 20 82 8 42 33 77 67 46 57 69 343 263 325 42 254 264 256 322 49 184 128 66 1 20 70 219 213 153 123 9 221 191 217 234 217 225 184 175 274 297 318 328 344 346 348 349 355 349 349 345
70 1 24 12 10 49 50 26 0 58 91 12 96 36 305 6 68 15 239 271 280 246 224 97 147 152 153 246 296 268 224 156 160 196 232 189 209 260 254 245 207 187 178 319 330 330 321 316 324 322 324 317 338 335
67 315 46 305 332 71 255 73 40 145 120 63 36 267 26 76 63 254 238 227 223 194 186 185 174 161 258 197 158 180 219 172 141 204 255 190 199 189 203 222 267 262 191 182 199 271 299 298 294 319 319 330 333 329
62 335 326 335 130 108 49 33 73 79 72 117 236 58 69 98 246 253 279 217 205 219 197 176 174 170 183 194 227 204 137 160 190 205 189 208 217 203 197 206 229 234 162 194 210 216 260 288 292 296 298 293 253 247
131 29 66 311 30 18 120 58 57 94 230 254 76 167 175 195 230 236 210 236 210 231 146 148 161 162 157 176 161 134 157 164 290 281 273 250 231 219 215 227 236 247 233 212 223 228 232 246 260 272 277 278 287 232
37 327 54 14 8 37 73 133 200 238 205 118 156 245 248 240 244 240 283 303 121 105 106 120 111 98 81 74 125 176 154 157 124 334 311 289 325 289 197 213 227 229 228 241 261 256 247 235 237 244 254 256 273 268
331 2 35 62 82 333 257 163 225 265 250 208 264 306 298 279 253 234 268 87 131 178 184 164 152 162 188 185 249 287 233 203 201 183 199 231 228 255 239 234 241 246 222 226 265 280 294 320 321 322 310 290 267 272
312 22 48 67 213 251 234 279 297 300 4 342 326 172 252 298 306 254 199 209 159 115 124 164 230 215 167 194 189 195 290 255 216 231 240 258 263 258 253 246 240 228 220 228 243 249 262 269 246 273 282 281 280 270
5 74 83 354 308 291 27 43 359 51 333 20 298 335 319 344 301 295 308 95 88 180 227 172 187 245 214 239 233 249 237 269 230 230 238 243 253 254 254 253 234 218 229 238 236 238 233 246 262 262 269 273 275 272
16 45 158 356 355 0 334 27 19 345 14 3 301 247 240 199 254 292 313 186 189 196 218 226 236 241 236 231 233 252 247 249 262 268 266 257 254 258 255 240 228 219 230 241 246 240 245 248 258 261 263 264 268 270